Simultaneous Nadir Overpasses (SNOs) Predictions

Prediction of SNOs between FY3D and TERRA Satellite Orbit:

Table of predicted SNOs for the next 14.0 days since TLE Epoch: 6/6/2020
Index Date (FY3D) Time (FY3D) Lat,Lon (FY3D) SZA (FY3D ) Date (TERRA) Time (TERRA) Lat,Lon (TERRA) SZA (TERRA ) Distance(km) Time Diff (sec)
1 06/07/2020 05:35:58 69.54, 94.37 46.64 06/07/2020 05:37:07 69.42, 95.78 46.51 56.43 69
2 06/07/2020 06:26:28 -68.86, -97.35 134.06 06/07/2020 06:26:45 -68.86, -97.31 134.05 1.54 17
3 06/07/2020 07:17:11 68.68, 70.20 45.77 06/07/2020 07:16:13 68.70, 70.13 45.79 3.39 58
4 06/09/2020 21:52:26 69.78,-150.08 46.67 06/09/2020 21:53:33 69.65,-148.04 46.52 79.98 67
5 06/09/2020 22:42:52 -68.88, 18.53 134.26 06/09/2020 22:43:15 -68.88, 18.58 134.26 2.08 23
6 06/09/2020 23:33:35 68.71,-173.93 45.57 06/09/2020 23:32:43 68.72,-173.98 45.58 1.75 52
7 06/12/2020 14:59:15 -68.91, 134.41 134.41 06/12/2020 14:59:45 -68.89, 134.47 134.43 3.07 30
8 06/12/2020 15:49:58 68.75, -58.07 45.43 06/12/2020 15:49:13 68.72, -58.10 45.40 3.05 45
9 06/15/2020 07:15:38 -68.88,-109.65 134.56 06/15/2020 07:16:17 -68.89,-109.67 134.56 1.35 39
10 06/15/2020 08:06:22 68.78, 57.80 45.34 06/15/2020 08:05:44 68.77, 57.84 45.33 1.49 38
11 06/17/2020 23:32:02 -68.91, 6.23 134.61 06/17/2020 23:32:50 -68.88, 6.19 134.64 3.16 48
12 06/18/2020 00:22:45 68.76, 173.74 45.24 06/18/2020 00:22:17 68.76, 173.69 45.24 2.08 28




NCC Satellite Simultaneous Nadir Overpasses (SNOs) Prediction Service
